Location: Donzy-le-Pr�
(47.3659°N, 3.1107°E)
Time: 04:41:08
(UTC+00:00)

SPOT 3 Rocket - Pass Details

Date: 03 March 2021
Orbit: 778 x 795 km, 98.7° (Epoch: 22 April)

Event Time Altitude Azimuth Distance (km) Brightness Sun altitude
Exits shadow 20:18:39 71° 1° (N) 841 3.6 -27.9°
Drops below altitude 10° 20:23:20 10° 347° (NNW) 2,374 6.4 -28.6°
Sets 20:25:40 0° 347° (NNW) 3,309 7.3 -29.0°
